Tracking 28790 objects as of 19-Apr-2024
HD Live streaming from Space Station
objects crossing your sky now

FENGYUN 1C DEB

Track FENGYUN 1C DEB now!
10-day predictions


NORAD ID: 30245
Int'l Code: 1999-025XE
Perigee: 836.7 km
Apogee: 1,131.9 km
Inclination: 98.9 °
Period: 104.6 minutes
Semi major axis: 7355 km
RCS: 0.0424 m2 (small)
Launch date: May 10, 1999
Source: People's Republic of China (PRC)
Launch site: Taiyaun Space Center, China (TSC)

Note: This is SATELLITE DEBRIS
Your satellite tracking list
Your tracking list is empty




NASA's NSSDC Master Catalog

Two Line Element Set (TLE):
1 30245U 99025XE  24110.03590947  .00003918  00000-0  35003-2 0  9998
2 30245  98.8809 130.2713 0200683  62.8072 299.3379 13.76264891864040
Source of the keplerian elements: AFSPC